Find Maido-1

NORAD ID: 33496 Int'l Des: 2009-002 Owner: SOHLA/JAXA Country: J operational
LEOCIRCULARRETROGRADESSO

实时位置

正在加载3D地球...

关于 Maido-1

正在加载描述...

即将过境

Passes for default location (London). Set your location on the main map for personalized predictions.

高度历史

Loading altitude history...

两行轨道根数

1 33496U 09002E 26139.66167362 .00000262 00000-0 46657-4 0 9996
2 33496 98.1419 44.2258 0007206 103.1867 257.0145 14.74993345929783
Epoch: May 19, 2026 • Age: 9 hours

当前状态

高度 646.7 km
速度 7.54 km/s
星下点 38.58°N, 16.44°W
发射日期 Jan 23, 2009
运行时间 17.3 years
类型 other

技术详情

分类 Payload
质量 50.00 kg
干质量 50.00 kg
总质量 50.00 kg
长度 0.50 m
直径 0.50 m
跨度 0.50 m
形状 Box
制造商 SOHLA
平台类型 SOHLA
阶段状态 In Orbit
所有者/国家 SOHLA/JAXA/J

Most Searched